Spokane Felts, WA
on Monday, December 17, 2012

Monday
Previous Day Next Day
Daily Summary
 ActualAverageRecord
Temperature
Mean Temperature °F 29°F  
Max Temperature 41°F 35°F 46°F (1998)
Min Temperature 31°F 23°F 7°F (2005)
Degree Days
Heating Degree Days 29 36  
Month to date heating degree days 437 591  
Since 1 July heating degree days 1710 2165  
Cooling Degree Days 0 0  
Month to date cooling degree days 0 0  
Year to date cooling degree days 509 406  
Moisture
Dew Point 28°F   
Average Humidity 72    
Maximum Humidity 89    
Minimum Humidity 54    
Precipitation
Precipitation 0.25 in 0.08 in 0.65 in (2008)
Month to date precipitation 1.23 1.42  
Year to date precipitation 19.99 16.64  
Wind
Wind Speed 20 mph   
Max Wind Speed 38 mph   
Max Gust Speed 53 mph   
Visibility 10 miles   
Events Rain , Snow   

Key: T is trace of precipitation, MM is missing value
Source: NWS Daily Summary
Time(PST)TemperatureDew PointHumidity Pressure Visibility Wind DirectionWind SpeedGust SpeedPrecipitationEvents Conditions
12:13 AM 33.8°F 30.2°F 87% 29.21 in 4.0 miles ENE 4.6 mph - 0.01 in Snow Light Snow
12:53 AM 37.9°F 32.0°F 79% 29.21 in 10.0 miles South 8.1 mph - 0.05 in   Overcast
1:53 AM 39.9°F 32.0°F 73% 29.21 in 10.0 miles SSW 17.3 mph 21.9 mph 0.10 in   Mostly Cloudy
2:53 AM 39.9°F 34.0°F 79% 29.19 in 7.0 miles SSW 16.1 mph 24.2 mph 0.06 in Rain Light Rain
3:53 AM 39.9°F 32.0°F 73% 29.18 in 10.0 miles SSW 16.1 mph 25.3 mph 0.01 in Rain Light Rain
4:53 AM 39.9°F 33.1°F 77% 29.19 in 10.0 miles SSW 12.7 mph - 0.01 in Rain Light Rain
5:53 AM 41.0°F 33.1°F 73% 29.18 in 10.0 miles SW 18.4 mph 31.1 mph 0.01 in Rain Light Rain
6:53 AM 39.9°F 32.0°F 73% 29.20 in 10.0 miles SW 24.2 mph 34.5 mph 0.01 in Rain Light Rain
7:53 AM 39.9°F 30.9°F 70% 29.22 in 10.0 miles SW 33.4 mph 49.5 mph 0.00 in   Overcast
8:53 AM 39.9°F 30.9°F 70% 29.27 in 10.0 miles SW 36.8 mph 44.9 mph N/A   Mostly Cloudy
9:53 AM 39.9°F 30.9°F 70% 29.34 in 10.0 miles SW 25.3 mph 39.1 mph N/A   Overcast
10:53 AM 39.9°F 30.9°F 70% 29.39 in 10.0 miles SW 26.5 mph 36.8 mph N/A   Overcast
11:31 AM 39.2°F 30.2°F 70% 29.37 in 10.0 miles SW 29.9 mph 47.2 mph N/A   Scattered Clouds
11:53 AM 39.9°F 30.0°F 68% 29.41 in 10.0 miles SW 32.2 mph 43.7 mph N/A   Scattered Clouds
12:53 PM 39.9°F 30.0°F 68% 29.45 in 10.0 miles SW 26.5 mph 40.3 mph N/A   Scattered Clouds
1:53 PM 41.0°F 30.0°F 65% 29.49 in 10.0 miles WSW 21.9 mph 29.9 mph N/A   Mostly Cloudy
4:53 PM 39.0°F 24.1°F 55% 29.60 in 10.0 miles WSW 15.0 mph 27.6 mph N/A   Overcast
5:53 PM 37.0°F 25.0°F 62% 29.64 in 10.0 miles WSW 15.0 mph 25.3 mph N/A   Overcast
6:53 PM 36.0°F 24.1°F 62% 29.68 in 10.0 miles SW 18.4 mph 25.3 mph N/A   Mostly Cloudy
7:53 PM 34.0°F 23.0°F 64% 29.71 in 10.0 miles WSW 15.0 mph 26.5 mph N/A   Mostly Cloudy
8:53 PM 33.1°F 23.0°F 66% 29.74 in 10.0 miles SW 12.7 mph 21.9 mph N/A   Overcast
9:53 PM 32.0°F 23.0°F 69% 29.78 in 10.0 miles SW 13.8 mph - N/A   Scattered Clouds
10:53 PM 30.9°F 23.0°F 72% 29.81 in 10.0 miles SW 15.0 mph 20.7 mph N/A   Scattered Clouds
11:03 PM 30.2°F 23.0°F 75% 29.77 in 10.0 miles SW 15.0 mph 18.4 mph N/A   Mostly Cloudy
11:53 PM 30.9°F 21.9°F 69% 29.82 in 10.0 miles SW 17.3 mph 21.9 mph N/A   Overcast
Moon Phase
Dec. 17 Dec. 20 Dec. 28 Jan. 04 Jan. 11
Sunrise:07:32 AM (PST) Moon Rise:10:25 AM (PST)12/17
Sunset:03:58 PM (PST) Moon Set:09:46 PM (PST)12/17

Copyright © 2014 The Weather Underground, Inc.